Weather in Novogrudok

Belarus     53˚35′55″N   25˚49′30″E
temp.,
°C
wind,
m/s
gust,
m/s
humid.,
%
clouds,
%
prec.,
mm/h
press.,
hPa
HPBL,
m
1 december, tue
tue100:00−2˚sw499694 0.2 1026372
03:00−2˚sw368886 0.2 1026442
06:00−3˚s359394 0.0 1026160
09:00−5˚s359467 0.0 1027104
12:00−3˚sse35887 0.0 1028242
15:00−3˚sse36875 0.0 1028357
18:00−5˚se36940 0.0 1029113
21:00−6˚se35910 0.0 103099
2 december, wed
wed200:00−6˚ese33900 0.0 103265
03:00−6˚ese33930 0.0 103265
06:00−6˚ese35940 0.0 103190
09:00−6˚e35960 0.0 1030121
12:00−4˚e46910 0.0 1030232
15:00−3˚e35933 0.0 1028248
18:00−4˚e359766 0.1 1027175
21:00−5˚se369876 0.1 1026163
3 december, thu
thu300:00−4˚se369662 0.1 1025267
03:00−3˚se479581 0.1 1025349
06:00−3˚se4894100 0.1 1023417
09:00−2˚se5995100 0.2 1023502
12:00−2˚sse699197 0.1 1022670
15:00−1˚sse698698 0.1 1020731
18:00−1˚se7129183 0.0 1019591
21:00−1˚se8149190 0.0 1019603
4 december, fri
fri400:00sse91590100 0.0 1018642
03:00sse91489100 0.0 1017649
06:00se8158998 0.0 1016625
09:00+2˚se9169399 0.0 1016714
12:00+2˚se91694100 0.0 1015704
15:00+3˚se91791100 0.0 1015777
18:00+3˚se91889100 0.0 1015640
21:00+3˚se101887100 0.0 1015672
5 december, sat
sat500:00+3˚se101888100 0.0 1015645
03:00+3˚se9179197 0.0 1016561
06:00+3˚se81593100 0.0 1016521
09:00+3˚se81693100 0.0 1017467
12:00+4˚se81593100 0.0 1017468
15:00+4˚se81493100 0.0 1017450
18:00+5˚se81593100 0.0 1017475
21:00+5˚se91691100 0.0 1018541